TIME,DELAY(SENSOR),PRES,T(CTD),SAL,OXYGEN,RAWTEMP,T(OPTODE),TCPHASE,FLUOR,BETA(BETA700),BETA(BETA412),BETA(BETA440),CDOM,C(CSC),ED(ED412.40),ED(ED444.00),ED(ED489.70),ED(ED554.30),LU(LU411.80),LU(LU443.40),LU(LU489.60),LU(LU554.10),COMP,TILTX,TILTX(TILTY),CHECK
1338240480,5811,496.3299865722656000,7.0580000877380370,34.1500015258789060,84.1393203735351600,584.8822021484375000,7.0715517997741700,48.2061882019043000,52,103,88,80,80,15309,2147749504,2147425078,2148001453,2147874514,2147627099,2147081700,2148246875,2147202322,3536,4,13,37322
1338240568,5810,485.2099914550781000,7.1298999786376950,34.1375999450683600,90.9116668701171900,583.6284179687500000,7.1118698120117190,47.4193611145019500,51,104,91,80,81,15311,2147749394,2147423094,2148004946,2147876708,2147629339,2147080877,2148242770,2147199021,2958,4,13,18996
1338240655,5808,474.6000061035156000,7.3175001144409180,34.1193008422851560,98.7241668701171900,577.9390258789062000,7.2946410179138180,46.4834709167480500,51,106,91,80,80,15307,2147747739,2147421385,2148000274,2147876132,2147629705,2147089252,2148241490,2147204032,2043,4,13,3091
1338240751,5809,464.4899902343750000,7.3800001144409180,34.1144981384277340,107.8908004760742200,575.8673706054688000,7.3611202239990230,45.4998703002929700,51,105,90,81,79,15309,2147749632,2147420425,2148002011,2147876114,2147630390,2147084617,2148241316,2147203565,942,4,13,12870
1338240872,5807,453.3299865722656000,7.4524002075195310,34.1106986999511700,113.7852020263671900,573.4304199218750000,7.4392762184143070,44.8743095397949200,51,106,87,79,78,15311,2147747355,2147424393,2148001088,2147873709,2147628644,2147086336,2148238811,2147208374,856,4,13,6899
1338241047,5810,444.0599975585937500,7.4795999526977540,34.1091003417968750,116.7528991699218800,572.7286987304688000,7.4617691040039060,44.5745201110839840,52,104,92,80,80,15311,2147748653,2147422875,2148002468,2147873106,2147627520,2147084525,2148242715,2147204754,386,4,13,19229
1338241485,5811,432.5199890136719000,7.8291001319885250,34.1020011901855500,129.9515991210937500,561.8239135742188000,7.8107829093933105,43.1591415405273440,50,106,89,80,78,15309,2147748397,2147423378,2148001051,2147873837,2147627072,2147081499,2148236388,2147202925,1252,4,14,21638
1338241663,5808,420.8200073242187500,8.1219997406005860,34.1007995605468750,139.5742950439453000,552.1848754882812000,8.1184368133544920,42.1485595703125000,50,105,90,80,78,15307,2147743936,2147422893,2148001426,2147869723,2147625910,2147086820,2148233142,2147205467,2577,4,13,12970
1338241795,5806,409.6199951171875000,8.3013000488281250,34.0966987609863300,148.5679931640625000,547.0311279296875000,8.2826156616210940,41.3054199218750000,51,105,87,79,78,15307,2147745846,2147425728,2147998875,2147873938,2147623908,2147088676,2148234194,2147207058,3477,4,13,56060
1338241918,5807,397.1700134277344000,8.7761001586914060,34.1092987060546900,154.4331054687500000,531.7465820312500000,8.7682552337646480,40.5676918029785160,50,105,88,80,75,15305,2147743040,2147422656,2148002002,2147870848,2147621147,2147090688,2148231643,2147207268,936,3,13,12707
1338242028,5808,385.0100097656250000,9.1617002487182620,34.1127014160156250,166.6611938476562500,519.9102172851562000,9.1430845260620120,39.4257392883300800,49,108,93,80,75,15306,2147743341,2147422080,2148000256,2147873728,2147621312,2147099428,2148230793,2147207186,434,3,13,64123
1338242138,5810,373.5899963378906000,9.5424003601074220,34.1096992492675800,184.6268005371093800,507.1518859863281000,9.5459375381469730,37.9373588562011700,50,106,86,81,73,15308,2147741549,2147422208,2148003126,2147876315,2147617033,2147094720,2148231707,2147206482,2750,3,13,63768
1338242255,5807,363.3099975585937500,10.0520000457763670,34.1297988891601560,197.5771942138672000,491.2694091796875000,10.0458202362060550,36.8275985717773440,49,106,90,81,73,15314,2147737435,2147425124,2148006619,2147873764,2147613604,2147099977,2148227483,2147209618,1397,4,13,61793
1338242398,5809,353.2099914550781000,10.5697002410888670,34.1556015014648440,204.2991943359375000,475.2998046875000000,10.5467300415039060,36.1477584838867200,49,106,86,81,73,15312,2147739922,2147425051,2148005056,2147872841,2147613595,2147110528,2148219968,2147208054,1882,4,14,30666
1338242561,5809,340.9800109863281000,10.9294996261596680,34.1757011413574200,218.9075012207031200,463.0234985351562500,10.9307003021240230,35.0995292663574200,48,104,91,80,72,15311,2147738258,2147421476,2148007670,2147875346,2147610925,2147113472,2148222619,2147209572,1710,3,14,110
1338242682,5814,330.0199890136719000,11.2016000747680660,34.1869010925293000,222.1396942138672000,453.4790039062500000,11.2285900115966800,34.7663002014160160,48,107,95,80,71,15311,2147735478,2147423268,2148010157,2147871323,2147603958,2147118454,2148221942,2147213622,2047,3,14,62326
1338242805,5807,319.3299865722656000,11.6704998016357420,34.2089996337890600,224.3137969970703000,439.0726928710937500,11.6772403717041020,34.4175796508789060,48,105,90,81,71,15310,2147732370,2147425152,2148008868,2147872009,2147605019,2147115437,2148221778,2147209755,953,3,13,29431
1338242926,5810,308.4500122070312500,12.2077999114990230,34.2322006225585940,220.6927947998047000,421.4356079101562500,12.2249898910522460,34.3357009887695300,49,107,91,82,71,15307,2147730898,2147427757,2148020022,2147870372,2147607424,2147121664,2148226331,2147210221,1267,3,14,6137
1338243047,5807,297.7699890136719000,12.7334995269775390,34.2593994140625000,210.2543945312500000,403.8489990234375000,12.7696399688720700,34.6464195251464840,49,110,89,83,71,15301,2147728173,2147432320,2148031954,2147874349,2147600594,2147126637,2148228388,2147210761,1182,4,14,27428
1338243181,5809,286.9400024414062500,13.0440998077392580,34.2891006469726560,206.7897033691406200,395.1467895507812500,13.0386199951171880,34.7116012573242200,48,109,91,81,71,15298,2147729682,2147436809,2148043913,2147872594,2147599076,2147134729,2148227693,2147210834,135,4,14,137
1338243335,5812,275.5599975585937500,13.2650003433227540,34.3053016662597660,205.5290069580078000,387.5971069335937500,13.2717199325561520,34.6690483093261700,48,111,91,81,69,15300,2147727515,2147439972,2148064329,2147875209,2147597357,2147139318,2148234852,2147216310,3031,4,15,42011
1338243490,5808,263.7699890136719000,14.3145999908447270,34.3967018127441400,211.5000000000000000,354.0252990722656000,14.3055896759033200,33.8120384216308600,48,106,90,81,67,15302,2147727734,2147451355,2148094528,2147875026,2147593828,2147151158,2148247433,2147212498,625,3,14,30578
1338243622,5809,252.8099975585937500,14.8023004531860350,34.4233016967773440,211.0433959960937500,336.1033020019531000,14.8559799194335940,33.5699081420898440,50,107,91,81,70,15295,2147726098,2147467136,2148134774,2147873097,2147592329,2147169618,2148266148,2147220918,2734,3,15,53
1338243767,5806,241.2799987792968800,15.3278999328613280,34.4830017089843750,207.1858978271484400,320.8597106933594000,15.3234100341796880,33.5640983581543000,49,109,89,81,69,15295,2147723968,2147493056,2148201490,2147873883,2147589833,2147184914,2148295835,2147217362,1674,4,14,50941
1338243899,5807,230.2599945068359400,16.0699005126953120,34.5560989379882800,207.9944000244140600,296.7944946289062500,16.0602703094482420,33.1655693054199200,50,108,90,82,68,15291,2147731876,2147533467,2148287204,2147869933,2147588416,2147207579,2148335204,2147219309,2426,3,14,63499
1338244031,5810,219.9100036621093800,17.6636009216308600,34.7354011535644500,206.7514038085937500,245.1159057617187500,17.6397209167480470,32.4974784851074200,54,114,92,81,67,15284,2147735808,2147586413,2148398107,2147873901,2147587922,2147239195,2148387136,2147226816,397,3,14,45593
1338244174,5811,207.7500000000000000,18.4811000823974600,34.8255996704101560,208.4338073730468800,218.1992034912109400,18.4617099761962900,32.0266189575195300,61,114,91,81,67,15272,2147755072,2147691401,2148601737,2147874139,2147589366,2147307547,2148475574,2147235410,2153,2,14,55426
1338244284,5809,197.8300018310547000,19.0254993438720700,34.8638000488281250,208.6625061035156200,199.6096038818359400,19.0295104980468750,31.7575798034667970,62,116,86,82,66,15271,2147784758,2147819437,2148848347,2147873161,2147596562,2147381814,2148587904,2147242605,1539,3,14,58048
1338244339,5809,193.2599945068359400,19.2367000579834000,34.8913993835449200,209.8316955566406200,191.9423980712890600,19.2637596130371100,31.5878105163574220,62,117,93,81,65,15269,2147806637,2147894582,2148987620,2147877165,2147605604,2147424859,2148652397,2147249837,795,4,15,54604
1338244413,5807,187.8200073242187500,19.6595001220703120,34.9367980957031250,211.1573028564453000,179.2315979003906200,19.6522407531738280,31.3426609039306640,66,120,91,82,66,15262,2147835501,2147992374,2149161188,2147877705,2147614208,2147478793,2148731062,2147257252,756,3,15,52041
1338244468,5810,184.2599945068359400,19.8554000854492200,34.9612007141113300,212.9956054687500000,173.1618957519531200,19.8378105163574220,31.1614303588867200,68,118,90,82,65,15260,2147863926,2148081005,2149314624,2147876681,2147624896,2147525504,2148805513,2147263707,1158,3,15,1574
1338244534,5809,179.8899993896484400,19.8950004577636720,34.9670982360839840,214.2649993896484400,171.4530029296875000,19.8900699615478500,31.0707492828369140,69,116,91,82,65,15258,2147902363,2148191104,2149514496,2147877348,2147642825,2147593069,2148897883,2147268946,1567,3,15,23665
1338244589,5812,176.3300018310547000,20.3582000732421880,35.0149993896484400,214.7566986083984400,157.3403015136718800,20.3218097686767580,30.8555297851562500,76,116,90,83,66,15248,2147939785,2148299931,2149691154,2147876489,2147654582,2147656694,2148980141,2147274477,1197,2,15,15780
1338244666,5806,171.8800048828125000,20.5380992889404300,35.0387001037597660,216.6627960205078000,150.4866027832031200,20.5316200256347660,30.6637306213378900,74,121,92,82,64,15243,2148002852,2148466285,2149972800,2147879213,2147683830,2147751469,2149111204,2147285485,565,3,15,16920
1338244744,5805,167.8800048828125000,20.7276000976562500,35.0730018615722660,219.1506958007812500,144.4756011962890600,20.7157001495361330,30.4552497863769530,76,117,92,82,65,15246,2148049718,2148576027,2150152045,2147879844,2147702518,2147811364,2149194148,2147294144,798,2,15,1994
1338244854,5807,163.7799987792968800,20.7171001434326170,35.0574989318847660,220.5948028564453000,144.7783966064453000,20.7064208984375000,30.3851890563964840,78,115,89,82,64,15243,2148143433,2148810532,2150544384,2147882450,2147743734,2147949074,2149375405,2147305682,3460,2,16,42896
1338244964,5808,159.9100036621093800,20.7015991210937500,35.0452995300293000,219.4579925537109400,145.0507965087890600,20.6980800628662100,30.4470405578613280,76,119,88,83,64,15244,2148272594,2149084982,2150976128,2147885842,2147795904,2148092882,2149579648,2147318354,2641,2,16,15627
1338245072,5810,155.3300018310547000,20.7383003234863280,35.0485000610351560,219.4221954345703000,143.7642974853515600,20.7374897003173830,30.4320106506347660,75,116,92,82,65,15247,2148451254,2149417060,2151453842,2147892452,2147872667,2148285796,2149810477,2147339574,2036,2,16,64991
1338245149,5808,151.2700042724609400,21.0130004882812500,35.0877990722656250,219.9494018554687500,134.6334991455078000,21.0172805786132800,30.2845401763916000,79,115,90,82,64,15239,2148644800,2149771428,2151974043,2147895488,2147953590,2148478189,2150055808,2147358838,1493,2,16,10136
1338245226,5807,147.6300048828125000,21.1478996276855470,35.0910987854003900,222.1116943359375000,130.5404052734375000,21.1427707672119140,30.1212005615234380,84,121,91,82,64,15231,2148897956,2150242971,2152676836,2147901577,2148066944,2148737024,2150374162,2147380982,499,2,15,2036
1338245314,5809,143.3699951171875000,21.2203006744384770,35.0928001403808600,223.2449035644531200,128.1822967529297000,21.2150802612304700,30.0332908630371100,82,120,90,83,63,15234,2149222902,2150782793,2153415323,2147911936,2148215122,2149042825,2150731949,2147411273,87,2,15,28265
1338245393,5808,139.5500030517578000,21.2686004638671880,35.0955009460449200,223.7234039306640600,126.5716018676757800,21.2644901275634770,29.9882507324218750,84,120,93,85,63,15230,2149611008,2151404288,2154266450,2147922185,2148382747,2149378752,2151125522,2147442258,196,2,15,57167
1338245481,5807,135.3899993896484400,21.3516998291015620,35.0918998718261700,224.0401000976562500,124.3320007324218800,21.3331909179687500,29.9432792663574220,88,122,92,82,63,15225,2150164516,2152287104,2155471990,2147937828,2148628077,2149846345,2151675940,2147486180,813,3,15,42041
1338245569,5810,131.3999938964843800,21.4263992309570300,35.0994987487793000,224.3887023925781200,121.5434036254882800,21.4187507629394530,29.8897590637207030,89,123,95,84,63,15226,2150750070,2153096521,2156495058,2147956635,2148885970,2150274276,2152149385,2147525888,1273,2,16,50610
1338245657,5811,127.3899993896484400,21.5564994812011720,35.1203994750976560,224.5603942871093800,116.3039016723632800,21.5795803070068360,29.8131198883056640,95,123,94,83,64,15208,2151639030,2154355830,2158116507,2147980617,2149268196,2150941796,2152885878,2147595748,1229,2,15,21738
1338245747,5809,124.0100021362304700,21.8906993865966800,35.1795997619628900,227.1562957763672000,106.8093032836914000,21.8712291717529300,29.5627708435058600,98,123,90,84,64,15210,2152415067,2155379739,2159403309,2148005878,2149642432,2151484534,2153459584,2147642834,1553,2,16,4069
1338245879,5809,120.2399978637695300,22.0077991485595700,35.1810989379882800,229.1943969726562500,102.3189010620117200,22.0092506408691400,29.4060897827148440,108,121,92,85,62,15192,2153394642,2156573622,2160763017,2148041060,2150136576,2152129389,2154071488,2147697261,1223,2,16,4048
1338246068,5810,115.9599990844726600,22.3451004028320300,35.1803016662597660,231.9190063476562500,91.7909164428711000,22.3331298828125000,29.1411991119384770,125,131,91,86,63,15171,2154517814,2157765906,2161848548,2148072978,2150644662,2152571227,2154414052,2147742720,1071,2,16,61451
1338246189,5809,112.1699981689453100,22.5711994171142580,35.1733016967773440,235.6775970458984400,84.9601669311523400,22.5434799194335940,28.8780708312988280,136,127,92,85,61,15145,2157463030,2161869577,2166803282,2148168320,2151972763,2154418706,2156405165,2147919488,3464,2,16,55952
1338246355,5809,106.3499984741211000,22.6436004638671880,35.1539001464843750,236.5722961425781200,81.9102172851562500,22.6374492645263670,28.7979698181152340,149,129,89,85,61,15129,2161785920,2167381147,2172614765,2148324553,2153853778,2156681398,2158544722,2148145389,1303,1,16,54101
1338246432,5811,101.9800033569336000,22.8675003051757800,35.1473007202148440,237.7928009033203000,74.9010772705078100,22.8535499572753900,28.6534996032714840,140,125,91,83,62,15127,2165254518,2171519963,2176565970,2148463369,2155395236,2158497664,2160212973,2148331465,722,2,16,4262
1338246498,5808,98.3099975585937500,22.8997001647949220,35.1510009765625000,239.2536926269531200,73.5389709472656200,22.8955707550048830,28.5695495605468750,132,123,93,85,60,15137,2169645842,2176992429,2182135158,2148641792,2157499428,2161100516,2162663049,2148582116,3003,2,16,31353
1338246553,5809,95.3700027465820300,22.9160995483398440,35.1524009704589840,240.1694946289062500,72.9072875976562500,22.9150600433349600,28.5202903747558600,126,123,91,82,62,15135,2172086208,2179680850,2184389229,2148774034,2158849810,2162560603,2163813494,2148725485,2409,2,16,39151
1338246608,5810,92.5899963378906200,23.0340003967285160,35.1530990600585940,241.5625000000000000,68.8731613159179700,23.0395603179931640,28.4069690704345700,97,122,91,85,61,15162,2175644470,2183902820,2188508745,2148962468,2160807771,2164818331,2165698322,2148930870,2460,2,16,54564
1338246665,5806,90.0599975585937500,23.1072006225585940,35.1539993286132800,243.5417022705078000,66.9682693481445300,23.0983695983886720,28.2947807312011720,91,124,92,83,58,15163,2178871917,2187573385,2191866733,2149135625,2163041865,2167395145,2167847570,2149145280,2581,2,17,1486
1338246720,5807,87.9400024414062500,23.1221008300781250,35.1505012512207000,244.4441070556640600,66.3517227172851600,23.1174106597900400,28.2469997406005860,86,122,92,84,60,15150,2182906742,2192142262,2196083858,2149356681,2165757376,2170523995,2170427090,2149409261,2425,2,16,14507
1338246775,5807,85.9300003051757800,23.1795005798339840,35.1433982849121100,244.0986938476562500,63.7102088928222660,23.1989898681640620,28.2293605804443360,84,121,93,83,60,15171,2186437814,2196188470,2199930678,2149564827,2167790171,2172775451,2172152256,2149597412,2524,2,16,60382
1338246830,5808,84.2099990844726600,23.4845008850097660,35.1337013244628900,243.4734039306640600,55.6794281005859400,23.4472103118896500,28.1571693420410160,79,122,93,85,58,15170,2187421421,2196609782,2199573302,2149645430,2169138395,2174147318,2173089984,2149689929,2781,2,16,39393
1338246940,5809,82.5899963378906200,23.4969005584716800,35.1367988586425800,243.5901031494140600,54.2208404541015600,23.4923191070556640,28.1337795257568360,78,121,94,86,58,15164,2191816000,2201669385,2204727058,2149933979,2171774016,2177261988,2175673188,2149952045,537,2,16,56863
1338247039,5810,79.9499969482421900,23.6485004425048830,35.1325988769531250,243.5285034179687500,49.3011894226074200,23.6445598602294920,28.0753898620605470,74,122,94,85,59,15163,2197878134,2207947364,2210210788,2150374747,2176516626,2182476425,2179652160,2150379254,975,2,16,23551
1338247094,5811,77.7300033569336000,23.7483997344970700,35.1430015563964840,243.5355987548828000,46.3984603881835940,23.7344303131103500,28.0391807556152340,73,120,93,86,59,15167,2200147108,2209898925,2211449718,2150604416,2178505947,2184242048,2180547337,2150486400,1340,2,16,43019
1338247149,5805,75.9100036621093800,23.8083992004394530,35.1291007995605500,243.3748016357422000,44.4478302001953100,23.7948493957519530,28.0218105316162100,71,119,93,83,59,15161,2204873106,2215196854,2216382180,2151045851,2182166555,2188159542,2183455606,2150829833,2167,2,17,33558
1338247215,5807,74.2300033569336000,23.9090003967285160,35.1095008850097660,244.0184020996093800,41.1813087463378900,23.8960704803466800,27.9530200958251950,69,119,93,85,58,15159,2202892141,2211497737,2211426505,2150916644,2182493092,2187931940,2182760429,2150711076,3526,2,16,44903
1338247326,5808,71.4400024414062500,23.9687995910644530,35.1083984375000000,244.7187957763672000,38.8256912231445300,23.9690895080566400,27.8930892944335940,67,119,94,85,59,15162,2215224512,2225361481,2225156050,2152177024,2191897810,2198026678,2190390528,2151603840,785,2,17,62769
1338247381,5805,68.9599990844726600,24.0237998962402340,35.1027984619140600,245.1737976074218800,37.0844497680664060,24.0230903625488280,27.8517208099365230,65,119,95,85,59,15153,2224785572,2235387227,2234055506,2152973001,2200689206,2207202212,2197138377,2152301732,793,2,16,29865
1338247436,5810,66.2900009155273400,24.0629005432128900,35.0998992919921900,245.7151031494140600,35.8704414367675800,24.0607395172119140,27.8131198883056640,65,133,90,83,60,15154,2237765092,2250036900,2248687552,2154645558,2210321819,2217288758,2204651346,2153266706,1020,2,17,13434
1338247491,5809,63.6300010681152340,24.0687999725341800,35.0980987548828100,245.8746032714843800,35.5706787109375000,24.0700397491455080,27.8025207519531250,65,119,92,84,61,15157,2248393929,2261274441,2259067346,2155956827,2220413595,2227316013,2211563520,2154090294,1340,2,16,61551
1338247546,5809,60.9900016784668000,24.0900993347167970,35.0952987670898440,245.8141937255859400,34.7121009826660160,24.0966796875000000,27.7945594787597660,64,117,90,84,56,15151,2258192722,2270951122,2267833133,2157427821,2229876470,2236459163,2217822893,2154890816,1005,2,17,46681
1338247601,5807,58.3199996948242200,24.1884002685546880,35.0908012390136700,245.8318023681640600,31.8713302612304700,24.1848297119140620,27.7587604522705080,61,118,95,85,60,15151,2268494610,2281859922,2278361042,2159978980,2241589184,2247831990,2225718802,2155853741,436,2,16,51039
1338247658,5808,55.8899993896484400,24.2595996856689450,35.0905990600585940,245.9132995605468800,29.6014709472656250,24.2553005218505860,27.7273597717285160,60,127,93,85,61,15143,2276415533,2289079168,2284182217,2161574912,2249683300,2255324617,2230600960,2156779181,645,2,17,60566
1338247713,5809,53.6699981689453100,24.3372001647949220,35.0845985412597660,245.8397979736328000,26.4711608886718750,24.3525295257568360,27.6919307708740230,60,118,90,84,56,15147,2285651712,2297673243,2291367195,2163656411,2262445156,2267834998,2239247213,2157804397,879,2,16,10188
1338247768,5804,51.7400016784668000,24.5240001678466800,35.0553016662597660,244.9989013671875000,21.6440601348876950,24.5025596618652340,27.6692199707031250,59,118,93,83,60,15148,2298327744,2311651968,2305480329,2165762614,2272456868,2277341037,2245586944,2159009892,901,2,16,4307
1338247834,5806,50.4099998474121100,24.5993995666503900,35.0435981750488300,244.2570037841797000,18.4832592010498050,24.6008605957031250,27.6628608703613280,57,114,91,84,56,15139,2298106432,2311342381,2304426340,2166272585,2277510966,2281545636,2248000457,2159142555,3167,2,17,53320
1338247989,5806,48.0299987792968750,24.6604995727539060,35.0349998474121100,243.1867980957031200,16.3053493499755860,24.6686305999755860,27.6828899383544920,57,114,92,84,60,15152,2314232128,2329519442,2323686948,2171063844,2293339163,2295894500,2257446756,2160904822,3083,2,16,40395
1338248044,5809,46.0400009155273440,24.6916007995605470,35.0284996032714840,242.8161926269531200,15.3846197128295900,24.6972904205322270,27.6878795623779300,56,117,90,85,56,15154,2317404992,2331539017,2324886116,2173768694,2302289709,2303628050,2261970770,2161870893,2896,2,17,39402
1338248099,5810,44.0200004577636700,24.7287998199462900,35.0223007202148440,242.5305938720703000,14.1925497055053710,24.7343997955322270,27.6858291625976560,55,115,92,83,55,15151,2323669193,2337553307,2330501513,2177373339,2312853074,2312682148,2267432374,2162789458,3144,1,17,56010
1338248154,5810,42.0999984741210940,24.7555007934570300,35.0169982910156250,242.2194061279297000,13.1998300552368160,24.7653102874755860,27.6872406005859380,55,113,89,83,64,15155,2336408347,2350196489,2343275529,2181267949,2330565467,2328877805,2277967195,2164448310,3496,1,17,55055
1338248220,5807,39.8899993896484400,24.7849998474121100,35.0125999450683600,241.9326934814453000,12.2464504241943360,24.7950000762939450,27.6882705688476560,55,112,90,83,58,15153,2350477696,2366109531,2359599469,2187085952,2351833764,2349080804,2291158409,2166715318,3160,1,16,41163
1338248297,5807,36.7099990844726560,24.7999992370605470,35.0097999572753900,241.7138061523437500,11.8749904632568360,24.8065700531005860,27.6933708190917970,53,117,92,86,55,15157,2369847670,2387244324,2381476443,2196883538,2379223424,2372889462,2305785161,2170124982,2670,2,16,59943
1338248352,5808,33.5900001525878900,24.8064994812011720,35.0094985961914060,241.5370941162109400,11.6127901077270500,24.8147392272949220,27.6977291107177730,54,112,93,84,57,15154,2382261613,2400234532,2395851574,2209678016,2405821842,2396298368,2320720649,2173972845,2637,2,17,62225
1338248407,5809,30.3600006103515620,24.8073997497558600,35.0097999572753900,241.7214050292968800,11.5582103729248050,24.8164405822753900,27.6890907287597660,53,112,88,82,59,15161,2387959131,2404338523,2399348105,2219872777,2428852964,2415906660,2332426368,2178087387,2443,2,16,24729
1338248462,5808,27.0400009155273440,24.8101005554199220,35.0091018676757800,241.5534057617187500,11.3854103088378900,24.8218193054199220,27.6943798065185550,53,114,93,84,61,15160,2422443382,2443713572,2443177600,2244874258,2459432393,2443442358,2350895259,2183636891,2376,1,17,45396
1338248517,5808,23.6499996185302730,24.8148994445800780,35.0084991455078100,241.7667999267578000,11.0722799301147460,24.8315696716308600,27.6811008453369140,52,114,91,83,55,15161,2419510473,2438373202,2439154358,2262729398,2503845851,2483308214,2376678893,2188519094,2152,0,18,5651
